KUIPER-00154

导读 | 豆包AI

KUIPER-00154是美国亚马逊“柯伊伯计划”卫星互联网项目的组网卫星,于2025年10月14日由SpaceX猎鹰9号火箭从卡纳维拉尔角太空军基地发射升空,进入近地轨道。“柯伊伯计划”旨在构建全球卫星宽带网络,计划总共部署超过3200颗近地卫星,为全球提供高速互联网接入服务,KUIPER-00154是该项目组网进程中的一颗卫星,将助力项目完成全球覆盖,与SpaceX星链形成竞争,推动卫星互联网产业发展。

基本信息
目录编号:
65969
目录名称:
KUIPER-00154
国际标识:
2025-228Y
轨道中心:
EARTH
卫星名称:
KUIPER-00154
卫星全名:
KUIPER-00154
卫星状态:
在轨 (已飞行140 天)
发射日期:
2025-10-14 UTC
国别 :
美国 (US)
星等 :
--
轨道信息
数据来源 国际轨道数据
星历时间: 2026-03-03T04:00:02+0800
8小时前
查看轨道信息
半长轴: 7007.673km
偏心率: 0.0000743
轨道倾角: 51.901°
近地点辐角 117.199°
升交点赤经 5.925°
平近点角 238.477°
近地点: 629.015km
远地点: 630.057km
周期: 97.302分钟
每日圈数: 14.79933
详细信息
使用方式:
暂无
2D轨道图
3D轨道图
轨道高度分析图
轨道倾角分析图
轨道综合分析图
查看轨道综合分析图